Weather History for Windom, MN

Change the Weather History Date:

Sunday, June 24, 2012

  Actual Average Record
Temperature  
Mean Temperature 74 °F -  
Max Temperature 86 °F 81 °F 94 °F (1954)
Min Temperature 62 °F 58 °F 47 °F (1955)
Cooling Degree Days 9    
Growing Degree Days 24 (Base 50)    
Moisture  
Dew Point 65 °F    
Average Humidity 75    
Maximum Humidity 100    
Minimum Humidity 51    
Precipitation  
Precipitation 0.00 in - - ()
Sea Level Pressure  
Sea Level Pressure 29.98 in    
Wind  
Wind Speed 7 mph (ENE)    
Max Wind Speed 20 mph    
Max Gust Speed 24 mph    
Visibility 10 miles    
Events      
Averages and records for this station are not official NWS values.
T = Trace of Precipitation, MM = Missing Value Source: NWS Daily Summary

Daily Weather History Graph

Daily Weather History Graph

Search for Another Location

Airport:

Trip Planner

Search our weather history database for the weather conditions in past years. The results will help you decide how hot, cold, wet, or windy it might be!

Date:

Astronomy

Jun. 24, 2012 Rise Set
Actual Time 5:38 AM CDT 9:07 PM CDT
Civil Twilight 5:02 AM CDT 9:43 PM CDT
Nautical Twilight 4:15 AM CDT 10:30 PM CDT
Astronomical Twilight 3:14 AM CDT 11:31 PM CDT
Moon 10:56 AM CDT (6/24) 11:53 PM CDT (6/24)
Length of Visible Light 16h 40m
Length of Day
15h 28m
Waxing Crescent, 25% of the Moon is Illuminated
Jun 24
Waxing Crescent
Jun 26
First Quarter
Jul 3
Full
Jul 10
Last Quarter
Jul 18
New

Hourly Weather History & Observations

Time (CDT) Temp. Heat Index Dew Point Humidity Pressure Visibility Wind Dir Wind Speed Gust Speed Precip Events Conditions
12:12 AM 68.0 °F - 64.4 °F 88% 29.93 in 10.0 mi South 8.1 mph - N/A   Clear
12:32 AM 66.2 °F - 64.4 °F 94% 29.93 in 10.0 mi SSE 5.8 mph - N/A   Clear
12:53 AM 66.2 °F - 64.4 °F 94% 29.93 in 10.0 mi South 6.9 mph - N/A   Clear
1:12 AM 66.2 °F - 64.4 °F 94% 29.92 in 10.0 mi South 6.9 mph - N/A   Clear
1:32 AM 66.2 °F - 64.4 °F 94% 29.92 in 10.0 mi South 6.9 mph - N/A   Clear
1:52 AM 66.2 °F - 62.6 °F 88% 29.93 in 10.0 mi South 4.6 mph - N/A   Clear
2:12 AM 64.4 °F - 62.6 °F 94% 29.93 in 10.0 mi South 3.5 mph - N/A   Clear
2:33 AM 64.4 °F - 62.6 °F 94% 29.92 in 10.0 mi South 3.5 mph - N/A   Clear
2:52 AM 64.4 °F - 62.6 °F 94% 29.93 in 10.0 mi Calm Calm - N/A   Clear
3:12 AM 62.6 °F - 60.8 °F 94% 29.94 in 10.0 mi Calm Calm - N/A   Clear
3:33 AM 62.6 °F - 62.6 °F 100% 29.93 in 5.0 mi Calm Calm - N/A   Clear
3:52 AM 62.6 °F - 60.8 °F 94% 29.93 in 7.0 mi NNE 4.6 mph - N/A   Clear
4:12 AM 62.6 °F - 60.8 °F 94% 29.94 in 7.0 mi NNE 4.6 mph - N/A   Scattered Clouds
4:33 AM 62.6 °F - 62.6 °F 100% 29.94 in 7.0 mi NNE 3.5 mph - N/A   Overcast
4:52 AM 62.6 °F - 62.6 °F 100% 29.94 in 10.0 mi NE 3.5 mph - N/A   Mostly Cloudy
5:12 AM 62.6 °F - 62.6 °F 100% 29.94 in 10.0 mi ENE 4.6 mph - N/A   Overcast
5:33 AM 64.4 °F - 62.6 °F 94% 29.94 in 10.0 mi ENE 3.5 mph - N/A   Mostly Cloudy
5:52 AM 62.6 °F - 62.6 °F 100% 29.94 in 7.0 mi ENE 3.5 mph - N/A   Scattered Clouds
6:12 AM 62.6 °F - 62.6 °F 100% 29.95 in 7.0 mi ENE 4.6 mph - N/A   Clear
6:32 AM 64.4 °F - 62.6 °F 94% 29.95 in 7.0 mi ENE 4.6 mph - N/A   Clear
6:52 AM 64.4 °F - 62.6 °F 94% 29.95 in 7.0 mi ENE 4.6 mph - N/A   Clear
7:13 AM 66.2 °F - 64.4 °F 94% 29.95 in 10.0 mi East 3.5 mph - N/A   Clear
7:32 AM 68.0 °F - 64.4 °F 88% 29.96 in 10.0 mi East 5.8 mph - N/A   Clear
7:52 AM 69.8 °F - 64.4 °F 83% 29.96 in 10.0 mi ENE 3.5 mph - N/A   Clear
8:13 AM 71.6 °F - 64.4 °F 78% 29.96 in 10.0 mi ENE 4.6 mph - N/A   Clear
8:32 AM 71.6 °F - 66.2 °F 83% 29.97 in 10.0 mi East 3.5 mph - N/A   Clear
8:52 AM 71.6 °F - 66.2 °F 83% 29.97 in 10.0 mi NNE 6.9 mph - N/A   Clear
9:13 AM 73.4 °F - 66.2 °F 78% 29.97 in 10.0 mi NE 5.8 mph - N/A   Clear
9:32 AM 73.4 °F - 66.2 °F 78% 29.98 in 10.0 mi NNE 6.9 mph - N/A   Clear
9:52 AM 75.2 °F - 66.2 °F 73% 29.98 in 10.0 mi NNE 10.4 mph - N/A   Clear
10:13 AM 75.2 °F - 66.2 °F 73% 29.98 in 10.0 mi NNE 12.7 mph - N/A   Clear
10:32 AM 77.0 °F - 66.2 °F 69% 29.98 in 10.0 mi NE 11.5 mph - N/A   Clear
10:53 AM 78.8 °F - 66.2 °F 65% 29.98 in 10.0 mi NE 12.7 mph 17.3 mph N/A   Clear
11:13 AM 78.8 °F - 66.2 °F 65% 29.98 in 10.0 mi NE 15.0 mph - N/A   Clear
11:32 AM 80.6 °F 82.7 °F 66.2 °F 61% 29.97 in 10.0 mi NE 12.7 mph 19.6 mph N/A   Clear
11:53 AM 80.6 °F 82.7 °F 66.2 °F 61% 29.98 in 5.0 mi NE 12.7 mph 21.9 mph N/A   Haze
12:12 PM 80.6 °F 82.7 °F 66.2 °F 61% 29.99 in 5.0 mi ENE 13.8 mph - N/A   Haze
12:33 PM 80.6 °F 82.7 °F 66.2 °F 61% 29.99 in 10.0 mi NE 17.3 mph 21.9 mph N/A   Clear
12:52 PM 82.4 °F 84.6 °F 66.2 °F 58% 29.99 in 10.0 mi ENE 16.1 mph 20.7 mph N/A   Scattered Clouds
1:12 PM 84.2 °F 86.6 °F 66.2 °F 55% 30.00 in 10.0 mi ENE 19.6 mph 24.2 mph N/A   Scattered Clouds
1:33 PM 82.4 °F 84.6 °F 66.2 °F 58% 30.00 in 10.0 mi ENE 17.3 mph - N/A   Scattered Clouds
1:52 PM 82.4 °F 84.6 °F 66.2 °F 58% 30.00 in 10.0 mi East 13.8 mph 21.9 mph N/A   Mostly Cloudy
2:12 PM 84.2 °F 86.6 °F 66.2 °F 55% 30.00 in 10.0 mi ENE 16.1 mph 19.6 mph N/A   Mostly Cloudy
2:33 PM 82.4 °F 84.6 °F 66.2 °F 58% 29.99 in 10.0 mi ENE 15.0 mph 20.7 mph N/A   Mostly Cloudy
2:52 PM 82.4 °F 84.6 °F 66.2 °F 58% 30.00 in 10.0 mi ENE 12.7 mph - N/A   Scattered Clouds
3:12 PM 84.2 °F 87.3 °F 68.0 °F 58% 30.00 in 10.0 mi ENE 13.8 mph 20.7 mph N/A   Scattered Clouds
3:33 PM 84.2 °F 86.6 °F 66.2 °F 55% 30.01 in 10.0 mi NE 12.7 mph - N/A   Scattered Clouds
3:52 PM 84.2 °F 86.6 °F 66.2 °F 55% 30.01 in 10.0 mi ENE 12.7 mph - N/A   Scattered Clouds
4:12 PM 86.0 °F 88.2 °F 66.2 °F 51% 30.01 in 10.0 mi ENE 15.0 mph 18.4 mph N/A   Scattered Clouds
4:33 PM 84.2 °F 86.6 °F 66.2 °F 55% 30.01 in 10.0 mi East 11.5 mph - N/A   Scattered Clouds
4:52 PM 84.2 °F 86.6 °F 66.2 °F 55% 30.01 in 10.0 mi ENE 12.7 mph 18.4 mph N/A   Clear
5:10 PM 84.2 °F 86.6 °F 66.2 °F 55% 30.01 in 10.0 mi ENE 11.5 mph 18.4 mph N/A   Scattered Clouds
5:32 PM 84.2 °F 86.6 °F 66.2 °F 55% 30.02 in 10.0 mi NE 6.9 mph - N/A   Scattered Clouds
5:52 PM 84.2 °F 86.6 °F 66.2 °F 55% 30.02 in 10.0 mi ENE 6.9 mph - N/A   Scattered Clouds
6:12 PM 82.4 °F 84.6 °F 66.2 °F 58% 30.01 in 10.0 mi ENE 9.2 mph - N/A   Scattered Clouds
6:32 PM 82.4 °F 84.6 °F 66.2 °F 58% 30.01 in 10.0 mi ENE 11.5 mph - N/A   Clear
6:52 PM 82.4 °F 84.6 °F 66.2 °F 58% 30.01 in 10.0 mi ENE 9.2 mph - N/A   Clear
7:12 PM 82.4 °F 84.6 °F 66.2 °F 58% 30.00 in 10.0 mi ENE 9.2 mph 16.1 mph N/A   Clear
7:33 PM 80.6 °F 82.7 °F 66.2 °F 61% 30.01 in 10.0 mi ENE 10.4 mph - N/A   Clear
7:52 PM 78.8 °F - 66.2 °F 65% 30.01 in 7.0 mi NE 6.9 mph - N/A   Clear
8:12 PM 80.6 °F 82.7 °F 66.2 °F 61% 30.02 in 10.0 mi NE 8.1 mph - N/A   Scattered Clouds
8:32 PM 78.8 °F - 66.2 °F 65% 30.01 in 10.0 mi NE 6.9 mph - N/A   Scattered Clouds
8:52 PM 75.2 °F - 66.2 °F 73% 30.00 in 10.0 mi ENE 6.9 mph - N/A   Clear
9:12 PM 73.4 °F - 66.2 °F 78% 30.01 in 10.0 mi ENE 5.8 mph - N/A   Clear
9:33 PM 73.4 °F - 66.2 °F 78% 30.02 in 10.0 mi NNE 6.9 mph - N/A   Scattered Clouds
9:52 PM 73.4 °F - 66.2 °F 78% 30.03 in 10.0 mi NE 8.1 mph - N/A   Mostly Cloudy
10:13 PM 73.4 °F - 66.2 °F 78% 30.03 in 10.0 mi NE 5.8 mph - N/A   Mostly Cloudy
10:32 PM 73.4 °F - 66.2 °F 78% 30.04 in 10.0 mi NE 6.9 mph - N/A   Scattered Clouds
10:52 PM 73.4 °F - 64.4 °F 73% 30.05 in 10.0 mi NE 8.1 mph - N/A   Mostly Cloudy
11:32 PM 71.6 °F - 64.4 °F 78% 30.06 in 10.0 mi NE 9.2 mph - N/A   Clear
11:52 PM 71.6 °F - 62.6 °F 73% 30.05 in 10.0 mi NE 10.4 mph - N/A   Clear